Regional Weather Roundup
Issued by NWS

Home | Current Version | Previous Version | Text Only | Print | Product List | Glossary Off
Versions: 1 2 3 4 5 6 7 8 9 10 11 12 13 14 15 16 17 18 19 20 21 22 23 24 25 26 27 28 29 30 31 32 33 34 35 36 37 38 39 40 41 42 43 44 45 46 47 48 49 50

000
ASUS43 KLOT 290108
RWRIL

ILLINOIS REGIONAL WEATHER ROUNDUP
NATIONAL WEATHER SERVICE CHICAGO/ROMEOVILLE IL
800 PM CDT FRI APR 28 2017

NOTE: "FAIR" INDICATES FEW OR NO CLOUDS BELOW 12,000 FEET WITH NO
SIGNIFICANT WEATHER AND/OR OBSTRUCTIONS TO VISIBILITY.

* THESE STATIONS ARE NOT UNDER NWS QUALITY CONTROL. THEY ALSO MAY NOT
  REPORT WEATHER SUCH AS PRECIPITATION OR FOG.

ILZ001-002-007-009-015-016-024-290200-
NORTHWEST ILLINOIS

CITY           SKY/WX    TMP DP  RH WIND       PRES   REMARKS
MOLINE         CLOUDY    50  47  89 NE7       29.88R
STERLING*      CLOUDY    50  48  93 N9        29.90R
SAVANNA*       CLOUDY    46  44  95 N7        29.92R
$$

ILZ003-004-008-010-011-017-018-290200-
NORTH CENTRAL ILLINOIS

CITY           SKY/WX    TMP DP  RH WIND       PRES   REMARKS
ROCKFORD       CLOUDY    51  48  89 N14       29.94R
FREEPORT*      CLOUDY    45  44  98 N7        29.94R FOG
ROCHELLE*      CLOUDY    51  49  92 N9        29.91R
DE KALB*       CLOUDY    55  50  86 N5        29.89R
PERU*          CLOUDY    57  52  83 CALM      29.89R
$$

ILZ005-006-012>014-019>023-290200-
NORTHEAST ILLINOIS

CITY           SKY/WX    TMP DP  RH WIND       PRES   REMARKS
CHICAGO-OHARE  CLOUDY    52  42  69 NE7       29.91R
CHICAGO-MIDWAY MOCLDY    51  44  77 NE8       29.91R
AURORA         CLOUDY    58  52  80 E5        29.89R
LANSING*       MOCLDY    53  47  82 N6        29.89R
JOLIET*        CLOUDY    58  54  84 CALM      29.89R
WAUKEGAN       CLOUDY    47  41  80 NE6       29.91R
DUPAGE AIRPORT CLOUDY    57  48  72 E9        29.88R
KANKAKEE*      CLOUDY    57  51  79 CALM      29.89R
WHEELING       CLOUDY    49  44  83 NE5       29.93R
MORRIS*        CLOUDY    58  52  81 CALM      29.87R
ROMEOVILLE*    CLOUDY    57  54  88 SE3       29.89R
NORTHERLY ISL    N/A     47  42  83 N6          N/A
$$

LMZ740>746-290200-
SOUTHERN LAKE MICHIGAN

STATION/POSITION SKY/WX   TEMP    WIND        PRES    VSBY  WAVE
                          AIR SEA DIR/SP/G                  HT/PER
                          (F)     (DEG/KT/KT) (MB)    (MI)  (FT/S)
HARRISON CRIB              47      30/  5/  6   N/A
BURNHAM HARBOR             47      20/  7/  8   N/A
CALUMET HARBOR             47      10/  5/  8 1011.7F
BURNS HARBOR               50     100/  2/  5 1012.5S
MICHIGAN CITY              57     160/  5/  6   N/A
MICHIGAN CITY 6N           46 46                N/A           1/ 3
ST. JOSEPH                 49 48   50/  6/  8 1012.8          2/ 3
$$

ILZ025>027-034>036-040-047-049-050-058-095>099-290200-
WEST-CENTRAL ILLINOIS

CITY           SKY/WX    TMP DP  RH WIND       PRES   REMARKS
QUINCY         CLOUDY    56  55  97 CALM      29.84R FOG
GALESBURG*     MOCLDY    54  53  97 N6        29.86R
MACOMB*        CLOUDY    58  55  91 E3        29.88R
JACKSONVILLE*  CLOUDY    56  55  97 N3        29.85R
PITTSFIELD*    CLOUDY    56  56  99 CALM      29.86R FOG
$$

ILZ028>032-037-038-041>044-048-051>054-059>061-290200-
CENTRAL ILLINOIS

CITY           SKY/WX    TMP DP  RH WIND       PRES   REMARKS
PONTIAC        CLOUDY    58  56  95 E7        29.88R
BLOOMINGTON    CLOUDY    55  53  93 E7        29.87R
DECATUR        CLOUDY    56  56 100 SE7       29.84R
PEORIA         CLOUDY    58  55  90 CALM      29.86R
LACON*         CLOUDY    57  55  91 CALM      29.87R
LINCOLN*       CLOUDY    57  56  97 CALM      29.86R
SPRINGFIELD    CLOUDY    58  54  86 N6        29.85R
TAYLORVILLE    CLOUDY    56  55  96 SE6       29.85R
$$

ILZ033-039-045-046-055>057-062-063-290200-
EAST-CENTRAL ILLINOIS

CITY           SKY/WX    TMP DP  RH WIND       PRES   REMARKS
CHAMPAIGN      CLOUDY    55  53  93 E14       29.84F
RANTOUL*       CLOUDY    56  55  95 SE12      29.84S FOG
MATTOON        CLOUDY    55  54  96 E10       29.82F
PARIS*         CLOUDY    55  55 100 NE8       29.85F THUNDER
$$

ILZ079-100>102-290200-
SOUTHWEST ILLINOIS

CITY           SKY/WX    TMP DP  RH WIND       PRES   REMARKS
ALTON          CLOUDY    57  55  94 E6        29.83R
BELLEVILLE     CLOUDY    57  57 100 NE3       29.81R
CAHOKIA*       LGT RAIN  59  56  89 CALM      29.83R
SPARTA*        RAIN      57  57 100 N3        29.82R
$$

ILZ064>066-069>071-074>076-080>082-084>086-088>090-092>094-290200-
SOUTH-CENTRAL ILLINOIS

CITY           SKY/WX    TMP DP  RH WIND       PRES   REMARKS
CARBONDALE     CLOUDY    65  65 100 CALM      29.79R FOG
CAIRO*         PTCLDY    73  70  91 SE5       29.78S
EFFINGHAM*     CLOUDY    57  57 100 E8        29.84R
MARION         CLOUDY    68  68 100 CALM      29.80R FOG
MT. VERNON     CLOUDY    59  58  96 N6        29.82R FOG
CENTRALIA*     LGT RAIN  58  58  99 E3        29.82R
SALEM*         DRIZZLE   58  56  93 CALM      29.83R
METROPOLIS*    MOCLDY    75  70  85 CALM      29.80S
$$

ILZ067-068-072-073-078-083-087-091-290200-
SOUTHEAST ILLINOIS

CITY           SKY/WX    TMP DP  RH WIND       PRES   REMARKS
LAWRENCEVILLE  CLOUDY    59  58  96 N9        29.84R
FLORA*         CLOUDY    58  57  96 NE9       29.82S
FAIRFIELD*       N/A     59  59 100 NE5       29.80S FOG
HARRISBURG*    TSTM      70  69  98 S6        29.79S
ROBINSON*      LGT RAIN  56  56  98 E7        29.84S
CARMI*         TSTM      69  69  99 S8        29.81R
$$

ABBREVIATIONS USED IN REMARKS
   TC - TEMPERATURE IN CELSIUS
  WCI - WIND CHILL INDEX
   HX - HEAT INDEX
  VSB - VISIBILITY
$$




USA.gov is the U.S. government's official web portal to all federal, state and local government web resources and services.